Weather in Marloth Park

South Africa     25°21′20″S   31°45′47″E
temp.,
°C
wind,
m/s
gust,
m/s
humid.,
%
clouds,
%
prec.,
mm/h
press.,
hPa
HPBL,
m
15 june, tue
tue1523:00+16sw11450 0.0 102211
02:00+15sw11470 0.0 102111
05:00+14w22460 0.0 102111
08:00+17wnw11370 0.0 102286
11:00+26nnw12250 0.0 1021852
14:00+27nne341851 0.0 10181649
17:00+22nne34285 0.0 101864
20:00+18nne233985 0.0 102042
16 june, wed
wed1623:00+16nw224545 0.0 102119
02:00+14nw224593 0.0 102030
05:00+13nw22470 0.0 101936
08:00+16nw25404 0.0 1021176
11:00+24nnw46300 0.0 10201085
14:00+27n44230 0.0 10161626
17:00+23nne37300 0.0 1016156
20:00+18n22414 0.0 101827
17 june, thu
thu1723:00+16wnw22450 0.0 101939
02:00+15nw36460 0.0 1018102
05:00+14wnw23430 0.0 101854
08:00+17wnw23310 0.0 1020118
11:00+26nw23170 0.0 1019691
14:00+30nne22140 0.0 10161205
17:00+24nne34230 0.0 101649
20:00+19nw11350 0.0 101911
18 june, fri
fri1823:00+17sse35410 0.0 102182
02:00+15s410770 0.0 1023292
05:00+15s411900 0.0 1025423
08:00+17s512814 0.0 1028653
11:00+20sse5962100 0.1 10301456
14:00+21sse4855100 0.1 10291637
17:00+19sse376818 0.3 1030345
20:00+17s257930 0.7 1033143
19 june, sat
sat1923:00+15s310880 0.0 1034365
02:00+15s4989100 0.1 1033367
05:00+15s488597 0.1 1034447
08:00+16s398024 0.1 1035488
11:00+20sse455599 0.1 10341440
14:00+21s344964 0.3 10321334
17:00+18ese266597 0.1 1032406
20:00+16se156794 0.1 1033214